Fes-Sais, Morocco

11:51 AM WET on January 20, 2018 (GMT +0000)
Fes-Sais

Weather History for GMFF - April, 2013

Change the Weather History Date:

Saturday, April 20, 2013

  Actual Average Record
Temperature  
Mean Temperature 67 °F -  
Max Temperature 81 °F 74 °F 81 °F (2013)
Min Temperature 53 °F 49 °F 39 °F (2005)
Cooling Degree Days 2    
Growing Degree Days 17 (Base 50)    
Moisture  
Dew Point 54 °F    
Average Humidity 62    
Maximum Humidity 82    
Minimum Humidity 33    
Precipitation  
Precipitation 0.00 in 0.08 in - ()
Sea Level Pressure  
Sea Level Pressure 30.04 in    
Wind  
Wind Speed 7 mph ()    
Max Wind Speed 10 mph    
Max Gust Speed -    
Visibility 5.9 miles    
Events      
Averages and records for this station are not official NWS values.
T = Trace of Precipitation, MM = Missing Value Source: Averaged Metar Reports

Daily Weather History Graph

Daily Weather History Graph

Search for Another Location

Airport or City:

Trip Planner

Search our weather history database for the weather conditions in past years. The results will help you decide how hot, cold, wet, or windy it might be!

Date:

Astronomy

Apr. 20, 2013 Rise Set
Actual Time 5:43 AM WET 6:55 PM WET
Civil Twilight 5:17 AM WET 7:21 PM WET
Nautical Twilight 4:46 AM WET 7:52 PM WET
Astronomical Twilight 4:14 AM WET 8:24 PM WET
Moon 1:39 PM WET 2:08 AM WET
Length of Visible Light 14h 04m
Length of Day
13h 12m
Waxing Gibbous, 69% of the Moon is Illuminated
Apr 20
Waxing Gibbous
Apr 25
Full
May 2
Last Quarter
May 10
New
May 18
First Quarter

Hourly Weather History & Observations

Time (WET) Temp. Heat Index Dew Point Humidity Pressure Visibility Wind Dir Wind Speed Gust Speed Precip Events Conditions
12:00 AM 60 °F - 52 °F 68% 30.07 in 6 mi South 9.2 mph - -  
12:00 AM 60.8 °F - 51.8 °F 72% 30.06 in - South 9.2 mph - N/A   Clear
1:00 AM 59.0 °F - 50.0 °F 72% 30.06 in - South 10.4 mph - N/A   Clear
2:00 AM 55.4 °F - 44.6 °F 67% 30.06 in - South 9.2 mph - N/A   Clear
3:00 AM 55 °F - 44 °F 56% 30.06 in 6 mi South 9.2 mph - -  
3:00 AM 55.4 °F - 44.6 °F 67% 30.04 in - South 9.2 mph - N/A   Clear
4:00 AM 55.4 °F - 42.8 °F 63% 30.04 in - South 9.2 mph - N/A   Clear
5:00 AM 53.6 °F - 44.6 °F 72% 30.06 in - South 6.9 mph - N/A   Clear
6:00 AM 53 °F - 47 °F 73% 30.08 in 6 mi South 8.1 mph - -  
6:00 AM 53.6 °F - 46.4 °F 77% 30.06 in - South 8.1 mph - N/A   Clear
7:00 AM 59.0 °F - 50.0 °F 72% 30.06 in - South 4.6 mph - N/A   Clear
8:00 AM 66.2 °F - 53.6 °F 64% 30.06 in - ENE 4.6 mph - N/A   Clear
9:00 AM 67 °F - 54 °F 52% 30.04 in 6 mi NE 6.9 mph - -  
9:00 AM 68.0 °F - 53.6 °F 60% 30.06 in - NE 5.8 mph - N/A   Clear
10:00 AM 69.8 °F - 55.4 °F 60% 30.06 in - ENE 6.9 mph - N/A   Clear
11:00 AM 71.6 °F - 57.2 °F 60% 30.06 in - Variable 9.2 mph - N/A   Clear
12:00 PM 74 °F - 57 °F 45% 30.00 in 6 mi NE 9.2 mph - -  
12:00 PM 73.4 °F - 57.2 °F 57% 30.06 in - NE 9.2 mph - N/A   Clear
1:00 PM 80.6 °F 81.1 °F 59.0 °F 48% 30.04 in 4.3 mi East 5.8 mph - N/A   Unknown
2:00 PM 80.6 °F 81.1 °F 59.0 °F 48% 30.04 in - ENE 3.5 mph - N/A   Clear
3:00 PM 81 °F - 56 °F 33% 29.93 in 6 mi NNW 4.6 mph - -   Scattered Clouds
3:00 PM 80.6 °F 80.8 °F 57.2 °F 45% 30.01 in 6.2 mi NNW 4.6 mph - N/A   Partly Cloudy
4:00 PM 80.6 °F 80.8 °F 57.2 °F 45% 30.01 in 6.2 mi North 4.6 mph - N/A   Partly Cloudy
5:00 PM 80.6 °F 81.1 °F 59.0 °F 48% 30.01 in - NNW 5.8 mph - N/A   Clear
6:00 PM 76 °F - 61 °F 49% 29.94 in 6 mi ENE 2.3 mph - -   Clear
6:00 PM 75.2 °F - 60.8 °F 61% 30.01 in - Calm Calm - N/A   Clear
7:00 PM 73.4 °F - 60.8 °F 65% 30.01 in - Variable 2.3 mph - N/A   Clear
8:00 PM 68.0 °F - 60.8 °F 78% 30.04 in - South 6.9 mph - N/A   Clear
9:00 PM 62 °F - 58 °F 81% 30.04 in 6 mi South 8.1 mph - -   Clear
9:00 PM 62.6 °F - 57.2 °F 82% 30.06 in - South 8.1 mph - N/A   Clear
10:00 PM 60.8 °F - 51.8 °F 72% 30.06 in - Variable 2.3 mph - N/A   Clear
11:00 PM 60.8 °F - 55.4 °F 82% 30.06 in - Calm Calm - N/A   Clear